QPF
0.00 0.00 0.01 0.01 0.01 0.01 0.01 0.01 0.01 0.00 0.00 0.00 0.01 0.01 0.01 0.01 0.01 0.01 0.02 0.03 0.02 0.01 0.01 0.01 0.02 0.02 0.02 0.03 0.03 0.02 0.02 0.02 0.02 0.02 0.02 0.03 0.02 0.02 0.02 0.02 0.02 0.02 0.04 0.07 0.05 0.03 0.02 0.02 0.02
0.00 0.00 0.01 0.02 0.02 0.01 0.01 0.01 0.01 0.00 0.01 0.01 0.01 0.01 0.00 0.01 0.01 0.01 0.02 0.03 0.02 0.01 0.01 0.01 0.02 0.03 0.03 0.04 0.04 0.03 0.03 0.02 0.02 0.02 0.02 0.02 0.02 0.02 0.03 0.03 0.03 0.03 0.04 0.05 0.03 0.02 0.02 0.02 0.01
0.00 0.00 0.01 0.02 0.01 0.03 0.01 0.01 0.01 0.01 0.01 0.01 0.00 0.01 0.01 0.01 0.01 0.02 0.02 0.03 0.02 0.01 0.00 0.01 0.02 0.04 0.04 0.02 0.02 0.03 0.03 0.03 0.02 0.01 0.02 0.02 0.02 0.03 0.04 0.04 0.03 0.04 0.04 0.03 0.02 0.02 0.01 0.01 0.02
0.00 0.00 0.02 0.01 0.01 0.02 0.02 0.01 0.00 0.01 0.01 0.01 0.00 0.01 0.01 0.01 0.01 0.01 0.02 0.03 0.02 0.02 0.01 0.01 0.02 0.02 0.03 0.04 0.03 0.04 0.04 0.03 0.02 0.02 0.02 0.02 0.02 0.02 0.03 0.04 0.03 0.03 0.03 0.02 0.03 0.02 0.01 0.02 0.02
0.00 0.00 0.01 0.01 0.01 0.01 0.02 0.02 0.01 0.01 0.01 0.01 0.00 0.00 0.01 0.02 0.01 0.01 0.03 0.03 0.02 0.02 0.01 0.01 0.01 0.01 0.01 0.03 0.05 0.05 0.05 0.06 0.04 0.03 0.03 0.02 0.02 0.03 0.03 0.04 0.04 0.03 0.03 0.03 0.03 0.02 0.02 0.02 0.01
0.00 0.01 0.01 0.01 0.00 0.01 0.01 0.02 0.01 0.02 0.02 0.02 0.01 0.00 0.01 0.02 0.02 0.02 0.03 0.04 0.01 0.01 0.01 0.01 0.01 0.01 0.01 0.02 0.03 0.05 0.08 0.12 0.08 0.05 0.04 0.03 0.03 0.03 0.04 0.04 0.04 0.04 0.05 0.04 0.04 0.03 0.02 0.02 0.02
0.00 0.01 0.01 0.01 0.00 0.00 0.01 0.01 0.01 0.03 0.03 0.02 0.01 0.00 0.01 0.02 0.03 0.04 0.05 0.04 0.02 0.01 0.01 0.01 0.01 0.01 0.01 0.01 0.02 0.03 0.08 0.16 0.16 0.09 0.05 0.03 0.03 0.03 0.05 0.05 0.05 0.04 0.05 0.05 0.04 0.03 0.03 0.02 0.02
0.01 0.01 0.01 0.01 0.01 0.00 0.00 0.01 0.01 0.04 0.05 0.02 0.00 0.00 0.01 0.02 0.03 0.04 0.05 0.04 0.03 0.02 0.01 0.01 0.01 0.01 0.01 0.01 0.01 0.02 0.05 0.16 0.19 0.13 0.07 0.03 0.03 0.03 0.04 0.05 0.05 0.05 0.05 0.06 0.05 0.03 0.03 0.02 0.02
0.01 0.01 0.01 0.01 0.02 0.02 0.01 0.01 0.01 0.02 0.04 0.03 0.00 0.00 0.00 0.01 0.02 0.04 0.05 0.04 0.03 0.02 0.02 0.01 0.01 0.01 0.01 0.01 0.01 0.01 0.03 0.11 0.16 0.13 0.09 0.05 0.04 0.03 0.03 0.03 0.03 0.04 0.05 0.05 0.04 0.03 0.02 0.01 0.01
0.01 0.02 0.01 0.01 0.01 0.01 0.01 0.01 0.00 0.01 0.03 0.04 0.01 0.00 0.00 0.01 0.02 0.03 0.04 0.04 0.04 0.02 0.02 0.01 0.01 0.01 0.01 0.01 0.01 0.01 0.01 0.06 0.12 0.12 0.09 0.07 0.06 0.04 0.03 0.03 0.03 0.04 0.04 0.03 0.03 0.03 0.03 0.03 0.02
0.01 0.01 0.01 0.00 0.00 0.00 0.00 0.00 0.00 0.00 0.01 0.04 0.02 0.01 0.01 0.01 0.02 0.03 0.04 0.04 0.04 0.03 0.02 0.01 0.01 0.01 0.01 0.01 0.01 0.01 0.01 0.04 0.09 0.13 0.08 0.07 0.07 0.05 0.03 0.03 0.03 0.03 0.03 0.02 0.02 0.02 0.04 0.04 0.03
0.00 0.00 0.01 0.00 0.00 0.00 0.00 0.00 0.00 0.00 0.00 0.02 0.02 0.01 0.01 0.01 0.02 0.02 0.03 0.04 0.05 0.05 0.02 0.01 0.02 0.02 0.02 0.01 0.01 0.01 0.01 0.03 0.08 0.15 0.09 0.07 0.06 0.05 0.04 0.03 0.02 0.02 0.02 0.03 0.02 0.02 0.04 0.04 0.03
0.00 0.00 0.00 0.00 0.00 0.01 0.01 0.01 0.00 0.00 0.00 0.01 0.01 0.01 0.01 0.01 0.02 0.02 0.03 0.03 0.04 0.04 0.03 0.02 0.02 0.02 0.03 0.02 0.02 0.01 0.01 0.02 0.05 0.14 0.12 0.08 0.06 0.05 0.04 0.02 0.02 0.02 0.02 0.05 0.04 0.02 0.04 0.05 0.04
0.00 0.00 0.00 0.00 0.01 0.02 0.02 0.01 0.00 0.00 0.00 0.01 0.01 0.01 0.01 0.02 0.02 0.03 0.04 0.04 0.04 0.04 0.03 0.02 0.02 0.03 0.03 0.03 0.03 0.02 0.02 0.02 0.03 0.12 0.15 0.10 0.07 0.07 0.06 0.02 0.01 0.01 0.02 0.04 0.06 0.04 0.03 0.04 0.04
0.00 0.00 0.00 0.00 0.01 0.02 0.01 0.01 0.01 0.00 0.01 0.01 0.01 0.01 0.01 0.02 0.03 0.03 0.03 0.04 0.04 0.04 0.05 0.04 0.03 0.03 0.04 0.04 0.04 0.03 0.04 0.03 0.03 0.08 0.16 0.14 0.10 0.09 0.07 0.02 0.01 0.01 0.02 0.03 0.06 0.06 0.03 0.03 0.03
0.01 0.01 0.00 0.00 0.00 0.01 0.02 0.02 0.02 0.02 0.01 0.01 0.01 0.01 0.01 0.02 0.03 0.03 0.03 0.04 0.05 0.05 0.06 0.05 0.04 0.04 0.04 0.05 0.05 0.05 0.05 0.05 0.04 0.05 0.13 0.14 0.12 0.10 0.08 0.03 0.02 0.01 0.02 0.03 0.06 0.06 0.05 0.03 0.04
0.01 0.01 0.00 0.00 0.01 0.01 0.02 0.02 0.03 0.04 0.02 0.01 0.01 0.01 0.01 0.01 0.03 0.04 0.04 0.05 0.06 0.06 0.05 0.04 0.04 0.04 0.05 0.05 0.06 0.07 0.06 0.06 0.06 0.06 0.08 0.13 0.13 0.10 0.08 0.04 0.02 0.01 0.02 0.03 0.05 0.05 0.05 0.04 0.04
0.02 0.01 0.01 0.01 0.01 0.01 0.02 0.02 0.03 0.04 0.02 0.01 0.01 0.02 0.01 0.01 0.03 0.06 0.05 0.05 0.09 0.07 0.05 0.04 0.04 0.04 0.04 0.05 0.06 0.08 0.08 0.08 0.08 0.07 0.08 0.12 0.15 0.11 0.09 0.05 0.02 0.01 0.02 0.03 0.04 0.04 0.03 0.04 0.04
0.01 0.02 0.01 0.01 0.01 0.01 0.02 0.02 0.03 0.02 0.02 0.01 0.02 0.03 0.01 0.01 0.03 0.07 0.07 0.07 0.11 0.09 0.06 0.05 0.05 0.05 0.04 0.04 0.04 0.06 0.07 0.08 0.09 0.09 0.10 0.10 0.15 0.14 0.11 0.06 0.03 0.02 0.02 0.02 0.02 0.02 0.03 0.03 0.03
0.01 0.02 0.02 0.01 0.00 0.01 0.01 0.01 0.02 0.02 0.02 0.02 0.02 0.03 0.03 0.02 0.03 0.06 0.08 0.07 0.10 0.08 0.06 0.06 0.06 0.05 0.04 0.04 0.03 0.04 0.06 0.06 0.07 0.08 0.10 0.10 0.12 0.15 0.13 0.08 0.05 0.04 0.02 0.02 0.02 0.01 0.01 0.02 0.02
0.01 0.02 0.02 0.01 0.00 0.01 0.02 0.02 0.01 0.01 0.02 0.02 0.02 0.02 0.03 0.02 0.02 0.04 0.08 0.08 0.08 0.07 0.06 0.06 0.06 0.05 0.06 0.05 0.04 0.04 0.05 0.08 0.07 0.06 0.07 0.08 0.09 0.12 0.13 0.08 0.06 0.04 0.03 0.02 0.02 0.01 0.01 0.02 0.02
0.01 0.01 0.01 0.01 0.01 0.01 0.02 0.03 0.02 0.01 0.01 0.01 0.01 0.01 0.02 0.02 0.02 0.03 0.05 0.08 0.06 0.05 0.06 0.06 0.06 0.04 0.05 0.06 0.06 0.05 0.04 0.05 0.07 0.06 0.05 0.07 0.07 0.08 0.12 0.10 0.07 0.05 0.04 0.02 0.01 0.01 0.02 0.02 0.03
0.00 0.00 0.01 0.01 0.02 0.02 0.01 0.02 0.02 0.01 0.01 0.01 0.01 0.01 0.01 0.02 0.03 0.02 0.03 0.07 0.05 0.04 0.05 0.05 0.06 0.05 0.04 0.05 0.04 0.04 0.04 0.03 0.04 0.06 0.07 0.07 0.08 0.07 0.10 0.11 0.09 0.06 0.05 0.03 0.02 0.01 0.01 0.01 0.02
0.01 0.02 0.02 0.02 0.03 0.03 0.01 0.01 0.01 0.01 0.01 0.01 0.01 0.01 0.01 0.01 0.02 0.02 0.02 0.04 0.04 0.04 0.04 0.05 0.06 0.06 0.05 0.04 0.04 0.04 0.04 0.03 0.03 0.04 0.06 0.08 0.09 0.08 0.09 0.10 0.08 0.06 0.06 0.04 0.03 0.02 0.01 0.01 0.01
0.01 0.03 0.05 0.04 0.03 0.02 0.00 0.00 0.01 0.01 0.01 0.01 0.01 0.01 0.01 0.01 0.01 0.02 0.02 0.03 0.03 0.04 0.03 0.03 0.04 0.05 0.05 0.05 0.05 0.05 0.03 0.03 0.03 0.03 0.04 0.06 0.08 0.08 0.09 0.09 0.08 0.06 0.05 0.04 0.03 0.03 0.03 0.02 0.02
0.02 0.03 0.04 0.04 0.02 0.01 0.01 0.01 0.01 0.01 0.01 0.01 0.01 0.01 0.01 0.01 0.01 0.02 0.02 0.02 0.03 0.05 0.04 0.03 0.03 0.04 0.04 0.05 0.05 0.05 0.03 0.03 0.03 0.03 0.04 0.04 0.05 0.06 0.06 0.06 0.07 0.07 0.05 0.04 0.03 0.02 0.02 0.03 0.03
0.03 0.03 0.04 0.05 0.03 0.02 0.01 0.01 0.01 0.00 0.01 0.00 0.00 0.00 0.00 0.01 0.01 0.02 0.02 0.02 0.03 0.04 0.05 0.04 0.03 0.04 0.05 0.05 0.05 0.05 0.04 0.04 0.03 0.04 0.04 0.03 0.03 0.03 0.03 0.04 0.04 0.06 0.07 0.05 0.04 0.03 0.02 0.02 0.02
0.01 0.02 0.02 0.03 0.03 0.01 0.01 0.01 0.01 0.01 0.01 0.01 0.01 0.01 0.00 0.00 0.01 0.01 0.01 0.02 0.02 0.03 0.05 0.05 0.05 0.04 0.05 0.06 0.06 0.05 0.05 0.04 0.04 0.04 0.04 0.03 0.03 0.02 0.02 0.01 0.02 0.03 0.06 0.06 0.05 0.04 0.03 0.02 0.02
0.00 0.01 0.02 0.02 0.02 0.02 0.01 0.00 0.01 0.01 0.01 0.01 0.01 0.01 0.01 0.00 0.01 0.01 0.01 0.01 0.01 0.02 0.03 0.05 0.05 0.05 0.05 0.07 0.08 0.08 0.07 0.06 0.05 0.05 0.04 0.04 0.03 0.01 0.01 0.01 0.01 0.02 0.04 0.05 0.05 0.05 0.04 0.03 0.03
0.01 0.01 0.02 0.03 0.02 0.01 0.01 0.00 0.01 0.01 0.01 0.01 0.01 0.01 0.00 0.00 0.01 0.01 0.01 0.01 0.01 0.01 0.02 0.03 0.05 0.05 0.05 0.06 0.08 0.09 0.10 0.08 0.06 0.06 0.05 0.04 0.03 0.02 0.01 0.01 0.01 0.02 0.03 0.04 0.05 0.05 0.05 0.04 0.03
MSLP
1016.82 1016.54 1016.27 1016.02 1015.77 1015.53 1015.26 1014.96 1014.62 1014.23 1013.81 1013.37 1012.94 1012.52 1012.15 1011.82 1011.55 1011.34 1011.21 1011.17 1011.23 1011.41 1011.71 1012.13 1012.65 1013.21 1013.77 1014.29 1014.73 1015.07 1015.34 1015.55 1015.75 1015.97 1016.24 1016.55 1016.90 1017.23 1017.54 1017.78 1017.95 1018.05 1018.12 1018.18 1018.27 1018.41 1018.59 1018.79 1018.99
1016.73 1016.30 1015.83 1015.35 1014.87 1014.40 1013.97 1013.57 1013.18 1012.81 1012.45 1012.09 1011.73 1011.37 1011.04 1010.74 1010.49 1010.31 1010.23 1010.27 1010.44 1010.76 1011.20 1011.76 1012.39 1013.05 1013.68 1014.24 1014.71 1015.09 1015.38 1015.63 1015.88 1016.14 1016.45 1016.79 1017.16 1017.52 1017.83 1018.08 1018.25 1018.37 1018.45 1018.54 1018.65 1018.80 1018.98 1019.19 1019.39
1016.53 1015.92 1015.24 1014.51 1013.80 1013.14 1012.57 1012.10 1011.71 1011.41 1011.15 1010.91 1010.66 1010.41 1010.14 1009.89 1009.67 1009.53 1009.50 1009.60 1009.87 1010.29 1010.85 1011.52 1012.25 1012.98 1013.67 1014.27 1014.78 1015.17 1015.49 1015.77 1016.03 1016.32 1016.65 1017.00 1017.37 1017.73 1018.04 1018.30 1018.49 1018.62 1018.74 1018.85 1018.98 1019.14 1019.34 1019.56 1019.77
1016.26 1015.48 1014.59 1013.64 1012.72 1011.90 1011.23 1010.72 1010.37 1010.16 1010.03 1009.93 1009.82 1009.68 1009.50 1009.31 1009.14 1009.04 1009.06 1009.22 1009.56 1010.06 1010.71 1011.46 1012.25 1013.03 1013.76 1014.38 1014.90 1015.31 1015.65 1015.94 1016.22 1016.51 1016.84 1017.19 1017.55 1017.90 1018.21 1018.48 1018.69 1018.85 1019.00 1019.14 1019.30 1019.49 1019.70 1019.92 1020.15
1015.98 1015.06 1014.00 1012.88 1011.80 1010.86 1010.11 1009.59 1009.29 1009.16 1009.15 1009.18 1009.21 1009.18 1009.10 1008.99 1008.88 1008.84 1008.91 1009.13 1009.52 1010.08 1010.77 1011.56 1012.38 1013.17 1013.90 1014.52 1015.04 1015.46 1015.81 1016.11 1016.40 1016.70 1017.03 1017.37 1017.73 1018.07 1018.39 1018.67 1018.90 1019.10 1019.28 1019.46 1019.65 1019.85 1020.07 1020.31 1020.54
1015.76 1014.74 1013.57 1012.34 1011.16 1010.14 1009.34 1008.81 1008.53 1008.47 1008.53 1008.66 1008.77 1008.84 1008.85 1008.81 1008.79 1008.82 1008.96 1009.24 1009.68 1010.27 1010.98 1011.77 1012.57 1013.34 1014.05 1014.66 1015.17 1015.59 1015.95 1016.27 1016.58 1016.90 1017.23 1017.58 1017.94 1018.28 1018.61 1018.91 1019.17 1019.41 1019.62 1019.83 1020.04 1020.26 1020.48 1020.72 1020.96
1015.61 1014.56 1013.35 1012.08 1010.86 1009.80 1008.98 1008.43 1008.14 1008.08 1008.15 1008.29 1008.44 1008.56 1008.63 1008.67 1008.73 1008.85 1009.08 1009.43 1009.93 1010.55 1011.26 1012.02 1012.77 1013.50 1014.15 1014.73 1015.22 1015.66 1016.04 1016.40 1016.74 1017.10 1017.46 1017.83 1018.19 1018.56 1018.90 1019.22 1019.52 1019.78 1020.03 1020.26 1020.48 1020.70 1020.92 1021.15 1021.39
1015.55 1014.53 1013.34 1012.10 1010.90 1009.85 1009.01 1008.42 1008.07 1007.94 1007.94 1008.03 1008.14 1008.24 1008.34 1008.44 1008.59 1008.82 1009.15 1009.59 1010.15 1010.80 1011.50 1012.22 1012.92 1013.58 1014.17 1014.71 1015.20 1015.65 1016.07 1016.48 1016.88 1017.29 1017.70 1018.10 1018.50 1018.88 1019.25 1019.59 1019.91 1020.21 1020.47 1020.72 1020.95 1021.16 1021.38 1021.59 1021.82
1015.55 1014.61 1013.52 1012.35 1011.22 1010.20 1009.35 1008.71 1008.26 1008.00 1007.86 1007.81 1007.81 1007.85 1007.93 1008.08 1008.30 1008.64 1009.08 1009.63 1010.27 1010.95 1011.65 1012.33 1012.97 1013.56 1014.11 1014.62 1015.10 1015.57 1016.05 1016.52 1017.00 1017.47 1017.93 1018.38 1018.81 1019.22 1019.61 1019.98 1020.32 1020.63 1020.92 1021.17 1021.40 1021.61 1021.82 1022.02 1022.24
1015.58 1014.75 1013.78 1012.75 1011.72 1010.75 1009.91 1009.20 1008.63 1008.20 1007.86 1007.62 1007.46 1007.39 1007.42 1007.57 1007.86 1008.30 1008.86 1009.51 1010.23 1010.96 1011.66 1012.32 1012.92 1013.46 1013.96 1014.45 1014.95 1015.46 1015.99 1016.54 1017.09 1017.63 1018.15 1018.64 1019.10 1019.54 1019.95 1020.33 1020.69 1021.02 1021.32 1021.58 1021.82 1022.03 1022.23 1022.43 1022.65
1015.56 1014.87 1014.05 1013.17 1012.26 1011.38 1010.55 1009.78 1009.09 1008.48 1007.94 1007.48 1007.13 1006.92 1006.86 1007.00 1007.33 1007.84 1008.50 1009.25 1010.05 1010.83 1011.55 1012.20 1012.77 1013.28 1013.77 1014.26 1014.78 1015.33 1015.92 1016.54 1017.15 1017.75 1018.32 1018.84 1019.33 1019.78 1020.20 1020.60 1020.98 1021.33 1021.65 1021.93 1022.18 1022.41 1022.62 1022.83 1023.06
1015.46 1014.89 1014.22 1013.50 1012.73 1011.94 1011.15 1010.35 1009.57 1008.80 1008.07 1007.42 1006.88 1006.52 1006.37 1006.46 1006.80 1007.36 1008.08 1008.91 1009.76 1010.59 1011.33 1011.99 1012.56 1013.07 1013.56 1014.07 1014.62 1015.22 1015.86 1016.53 1017.19 1017.83 1018.42 1018.96 1019.46 1019.91 1020.35 1020.76 1021.16 1021.54 1021.89 1022.21 1022.50 1022.76 1023.00 1023.24 1023.49
1015.24 1014.76 1014.22 1013.63 1013.00 1012.32 1011.60 1010.82 1009.99 1009.12 1008.26 1007.46 1006.78 1006.29 1006.04 1006.07 1006.38 1006.94 1007.69 1008.55 1009.43 1010.28 1011.05 1011.72 1012.30 1012.83 1013.35 1013.89 1014.48 1015.13 1015.81 1016.52 1017.21 1017.86 1018.45 1018.99 1019.48 1019.94 1020.38 1020.81 1021.23 1021.65 1022.06 1022.43 1022.78 1023.09 1023.38 1023.67 1023.95
1014.86 1014.44 1013.99 1013.51 1013.00 1012.44 1011.81 1011.10 1010.29 1009.41 1008.50 1007.62 1006.85 1006.27 1005.94 1005.90 1006.16 1006.68 1007.40 1008.24 1009.12 1009.96 1010.73 1011.42 1012.02 1012.58 1013.14 1013.74 1014.37 1015.06 1015.78 1016.50 1017.19 1017.83 1018.41 1018.93 1019.41 1019.86 1020.31 1020.76 1021.23 1021.70 1022.17 1022.62 1023.04 1023.43 1023.79 1024.13 1024.46
1014.36 1013.95 1013.54 1013.13 1012.72 1012.27 1011.76 1011.15 1010.43 1009.62 1008.74 1007.88 1007.09 1006.48 1006.10 1005.99 1006.18 1006.62 1007.26 1008.03 1008.85 1009.65 1010.41 1011.09 1011.72 1012.33 1012.94 1013.58 1014.26 1014.99 1015.73 1016.45 1017.14 1017.76 1018.31 1018.81 1019.27 1019.72 1020.18 1020.66 1021.18 1021.72 1022.26 1022.80 1023.30 1023.77 1024.21 1024.61 1024.99
1013.77 1013.32 1012.91 1012.54 1012.19 1011.84 1011.45 1010.98 1010.40 1009.72 1008.96 1008.18 1007.46 1006.86 1006.46 1006.31 1006.41 1006.75 1007.28 1007.93 1008.65 1009.38 1010.09 1010.76 1011.40 1012.04 1012.70 1013.39 1014.13 1014.88 1015.64 1016.36 1017.03 1017.63 1018.17 1018.64 1019.09 1019.55 1020.02 1020.55 1021.12 1021.72 1022.34 1022.96 1023.55 1024.10 1024.61 1025.08 1025.51
1013.16 1012.65 1012.19 1011.82 1011.51 1011.23 1010.96 1010.63 1010.22 1009.71 1009.13 1008.50 1007.88 1007.36 1006.98 1006.78 1006.81 1007.03 1007.42 1007.94 1008.53 1009.15 1009.78 1010.42 1011.06 1011.72 1012.42 1013.15 1013.93 1014.71 1015.49 1016.22 1016.88 1017.47 1017.99 1018.46 1018.91 1019.38 1019.88 1020.44 1021.06 1021.72 1022.40 1023.09 1023.75 1024.37 1024.95 1025.48 1025.95
1012.64 1012.04 1011.52 1011.11 1010.80 1010.57 1010.39 1010.19 1009.95 1009.63 1009.23 1008.78 1008.31 1007.88 1007.55 1007.35 1007.31 1007.42 1007.68 1008.04 1008.48 1008.98 1009.51 1010.08 1010.69 1011.36 1012.07 1012.84 1013.65 1014.46 1015.26 1016.00 1016.67 1017.26 1017.79 1018.28 1018.74 1019.23 1019.76 1020.35 1021.00 1021.70 1022.42 1023.15 1023.86 1024.54 1025.16 1025.73 1026.25
1012.29 1011.60 1011.02 1010.55 1010.22 1010.02 1009.89 1009.79 1009.68 1009.52 1009.30 1009.02 1008.71 1008.40 1008.14 1007.95 1007.86 1007.88 1008.01 1008.22 1008.51 1008.87 1009.29 1009.78 1010.34 1010.97 1011.68 1012.46 1013.28 1014.12 1014.93 1015.70 1016.40 1017.02 1017.58 1018.09 1018.59 1019.10 1019.66 1020.26 1020.93 1021.64 1022.37 1023.11 1023.84 1024.54 1025.20 1025.80 1026.35
1012.19 1011.45 1010.81 1010.30 1009.94 1009.72 1009.61 1009.56 1009.54 1009.49 1009.41 1009.27 1009.09 1008.89 1008.70 1008.54 1008.44 1008.39 1008.41 1008.50 1008.65 1008.87 1009.17 1009.54 1010.02 1010.60 1011.27 1012.03 1012.84 1013.68 1014.52 1015.32 1016.05 1016.72 1017.33 1017.89 1018.43 1018.98 1019.55 1020.16 1020.82 1021.51 1022.22 1022.94 1023.66 1024.36 1025.02 1025.65 1026.23
1012.42 1011.66 1011.00 1010.46 1010.07 1009.83 1009.70 1009.65 1009.65 1009.66 1009.64 1009.59 1009.51 1009.40 1009.28 1009.15 1009.05 1008.97 1008.91 1008.90 1008.93 1009.02 1009.18 1009.43 1009.79 1010.28 1010.87 1011.57 1012.35 1013.18 1014.03 1014.85 1015.64 1016.36 1017.03 1017.66 1018.25 1018.83 1019.42 1020.02 1020.64 1021.29 1021.96 1022.64 1023.31 1023.99 1024.65 1025.29 1025.89
1012.98 1012.26 1011.62 1011.10 1010.70 1010.42 1010.25 1010.16 1010.13 1010.11 1010.10 1010.07 1010.03 1009.98 1009.90 1009.82 1009.74 1009.64 1009.54 1009.46 1009.38 1009.35 1009.37 1009.49 1009.71 1010.06 1010.54 1011.14 1011.86 1012.64 1013.48 1014.32 1015.14 1015.93 1016.67 1017.36 1018.00 1018.62 1019.21 1019.80 1020.39 1020.98 1021.58 1022.20 1022.83 1023.46 1024.10 1024.74 1025.37
1013.85 1013.22 1012.65 1012.18 1011.79 1011.50 1011.28 1011.12 1010.99 1010.90 1010.83 1010.78 1010.73 1010.69 1010.65 1010.60 1010.54 1010.45 1010.34 1010.20 1010.05 1009.90 1009.79 1009.74 1009.81 1009.99 1010.32 1010.79 1011.39 1012.11 1012.90 1013.74 1014.58 1015.42 1016.21 1016.96 1017.66 1018.31 1018.92 1019.49 1020.04 1020.58 1021.12 1021.68 1022.25 1022.84 1023.46 1024.10 1024.74
1014.95 1014.45 1014.01 1013.62 1013.29 1012.99 1012.71 1012.46 1012.23 1012.03 1011.85 1011.72 1011.62 1011.57 1011.54 1011.52 1011.49 1011.43 1011.32 1011.15 1010.93 1010.68 1010.44 1010.23 1010.11 1010.11 1010.25 1010.55 1011.01 1011.61 1012.32 1013.12 1013.96 1014.82 1015.66 1016.46 1017.20 1017.89 1018.51 1019.09 1019.61 1020.12 1020.61 1021.11 1021.63 1022.19 1022.78 1023.41 1024.05
1016.18 1015.85 1015.56 1015.30 1015.03 1014.74 1014.43 1014.09 1013.74 1013.40 1013.11 1012.87 1012.71 1012.62 1012.59 1012.60 1012.60 1012.57 1012.47 1012.28 1012.02 1011.68 1011.31 1010.95 1010.64 1010.44 1010.37 1010.47 1010.75 1011.20 1011.79 1012.51 1013.31 1014.15 1015.00 1015.83 1016.62 1017.34 1017.99 1018.58 1019.10 1019.60 1020.07 1020.54 1021.04 1021.57 1022.14 1022.75 1023.38
1017.45 1017.29 1017.17 1017.03 1016.85 1016.59 1016.24 1015.82 1015.36 1014.90 1014.48 1014.14 1013.91 1013.79 1013.75 1013.78 1013.82 1013.82 1013.75 1013.57 1013.26 1012.86 1012.38 1011.86 1011.38 1010.97 1010.69 1010.58 1010.65 1010.91 1011.35 1011.94 1012.66 1013.45 1014.27 1015.10 1015.91 1016.66 1017.35 1017.97 1018.53 1019.04 1019.52 1020.00 1020.49 1021.01 1021.56 1022.15 1022.77
1018.67 1018.67 1018.70 1018.68 1018.56 1018.32 1017.95 1017.47 1016.91 1016.35 1015.83 1015.42 1015.13 1014.98 1014.95 1015.00 1015.08 1015.13 1015.08 1014.91 1014.60 1014.14 1013.58 1012.94 1012.29 1011.70 1011.21 1010.88 1010.74 1010.80 1011.05 1011.48 1012.06 1012.75 1013.51 1014.30 1015.10 1015.87 1016.60 1017.26 1017.88 1018.44 1018.97 1019.48 1019.99 1020.51 1021.05 1021.62 1022.22
1019.80 1019.91 1020.04 1020.09 1020.02 1019.78 1019.38 1018.85 1018.23 1017.59 1017.02 1016.55 1016.24 1016.09 1016.08 1016.17 1016.29 1016.39 1016.39 1016.24 1015.93 1015.46 1014.83 1014.11 1013.34 1012.59 1011.93 1011.41 1011.05 1010.89 1010.93 1011.16 1011.57 1012.11 1012.76 1013.48 1014.24 1015.01 1015.76 1016.48 1017.15 1017.79 1018.38 1018.95 1019.50 1020.04 1020.59 1021.14 1021.70
1020.82 1020.98 1021.13 1021.19 1021.11 1020.85 1020.41 1019.83 1019.17 1018.51 1017.91 1017.44 1017.14 1017.01 1017.04 1017.18 1017.36 1017.50 1017.56 1017.46 1017.17 1016.71 1016.07 1015.31 1014.47 1013.62 1012.83 1012.14 1011.60 1011.23 1011.05 1011.06 1011.26 1011.61 1012.10 1012.70 1013.38 1014.10 1014.86 1015.61 1016.35 1017.06 1017.73 1018.37 1018.97 1019.55 1020.10 1020.65 1021.19
1021.75 1021.87 1021.96 1021.96 1021.80 1021.47 1020.98 1020.37 1019.70 1019.03 1018.46 1018.03 1017.77 1017.70 1017.78 1017.98 1018.22 1018.42 1018.53 1018.48 1018.25 1017.83 1017.22 1016.47 1015.62 1014.74 1013.87 1013.06 1012.37 1011.81 1011.42 1011.21 1011.17 1011.30 1011.59 1012.02 1012.57 1013.21 1013.93 1014.68 1015.46 1016.23 1016.97 1017.68 1018.34 1018.96 1019.54 1020.08 1020.61
Thickness
5680 5682 5681 5673 5657 5642 5643 5656 5667 5671 5674 5679 5681 5680 5677 5674 5675 5672 5675 5680 5682 5682 5683 5684 5686 5686 5687 5688 5688 5689 5690 5691 5692 5693 5694 5695 5695 5696 5697 5697 5697 5698 5698 5699 5699 5700 5700 5701 5701
5675 5675 5669 5657 5641 5631 5640 5654 5661 5668 5674 5676 5675 5673 5670 5667 5670 5670 5671 5675 5677 5678 5679 5680 5681 5682 5682 5683 5683 5684 5685 5686 5687 5688 5690 5691 5691 5692 5692 5693 5693 5693 5694 5694 5695 5695 5696 5696 5696
5669 5668 5654 5641 5632 5632 5644 5656 5659 5665 5670 5670 5665 5663 5663 5662 5664 5664 5668 5670 5671 5672 5673 5674 5675 5676 5677 5677 5678 5679 5680 5681 5682 5684 5685 5686 5687 5687 5688 5688 5688 5689 5689 5690 5690 5690 5691 5691 5692
5660 5651 5642 5631 5630 5638 5648 5653 5656 5659 5663 5663 5659 5653 5655 5657 5659 5661 5663 5664 5665 5666 5667 5668 5669 5670 5671 5671 5672 5673 5674 5676 5677 5678 5679 5680 5681 5682 5682 5683 5683 5684 5684 5685 5685 5686 5686 5686 5687
5648 5636 5626 5621 5628 5638 5644 5648 5650 5651 5652 5653 5651 5646 5645 5649 5653 5655 5656 5658 5658 5659 5660 5661 5662 5663 5664 5665 5666 5667 5668 5670 5671 5673 5674 5675 5676 5676 5677 5677 5678 5679 5679 5680 5680 5681 5681 5682 5682
5631 5624 5613 5612 5623 5634 5638 5642 5643 5642 5643 5645 5642 5638 5637 5641 5645 5647 5649 5650 5651 5652 5653 5654 5655 5656 5657 5658 5659 5660 5662 5663 5665 5666 5667 5669 5670 5670 5671 5672 5672 5673 5673 5674 5675 5675 5676 5676 5677
5621 5614 5610 5613 5618 5625 5632 5634 5633 5632 5633 5635 5637 5631 5630 5633 5636 5639 5641 5642 5643 5644 5646 5647 5647 5648 5649 5650 5652 5653 5654 5656 5657 5658 5660 5661 5663 5664 5664 5665 5666 5667 5668 5668 5669 5669 5670 5670 5671
5619 5610 5608 5608 5613 5618 5625 5626 5626 5626 5626 5629 5630 5625 5623 5627 5629 5631 5633 5634 5635 5636 5637 5638 5639 5641 5642 5642 5643 5645 5646 5648 5649 5650 5651 5653 5655 5656 5657 5658 5659 5660 5661 5662 5662 5663 5664 5664 5664
5615 5599 5598 5605 5610 5613 5617 5617 5618 5620 5618 5618 5618 5620 5621 5622 5622 5622 5623 5624 5625 5627 5629 5630 5631 5632 5633 5634 5635 5637 5638 5639 5641 5642 5643 5645 5646 5648 5649 5651 5652 5653 5654 5655 5655 5656 5657 5657 5657
5600 5590 5598 5605 5608 5608 5608 5608 5609 5609 5607 5606 5607 5608 5611 5612 5613 5614 5614 5615 5616 5617 5620 5621 5623 5624 5625 5626 5627 5628 5629 5630 5631 5633 5635 5636 5637 5639 5641 5642 5644 5645 5646 5647 5648 5648 5649 5650 5650
5594 5590 5597 5599 5602 5603 5600 5599 5601 5599 5597 5598 5599 5599 5599 5601 5603 5605 5606 5607 5608 5609 5611 5613 5615 5616 5617 5618 5619 5620 5621 5622 5623 5624 5626 5627 5629 5630 5632 5633 5635 5636 5637 5639 5640 5640 5641 5642 5643
5586 5587 5590 5591 5593 5593 5590 5589 5588 5587 5589 5592 5593 5592 5592 5592 5594 5595 5597 5598 5599 5600 5603 5604 5606 5608 5609 5610 5611 5612 5613 5614 5615 5616 5618 5619 5620 5621 5622 5624 5625 5627 5628 5630 5632 5632 5633 5634 5635
5578 5579 5581 5581 5581 5581 5579 5576 5575 5576 5580 5582 5583 5582 5582 5584 5586 5587 5588 5590 5592 5593 5594 5595 5597 5599 5600 5601 5602 5603 5604 5605 5606 5607 5608 5610 5611 5611 5613 5614 5616 5618 5619 5621 5622 5624 5625 5626 5627
5573 5571 5571 5571 5572 5571 5567 5566 5564 5567 5569 5571 5571 5571 5573 5574 5577 5578 5579 5580 5583 5585 5586 5587 5589 5590 5591 5592 5593 5594 5595 5596 5597 5598 5599 5601 5602 5602 5604 5605 5607 5609 5610 5612 5613 5615 5616 5617 5618
5566 5560 5561 5562 5563 5562 5559 5556 5557 5558 5558 5559 5561 5562 5563 5565 5568 5569 5571 5572 5574 5576 5578 5579 5580 5581 5582 5583 5584 5585 5586 5587 5588 5589 5590 5592 5593 5593 5595 5596 5598 5600 5601 5603 5604 5606 5607 5608 5609
5554 5547 5545 5553 5554 5553 5547 5546 5551 5548 5547 5548 5549 5551 5553 5555 5559 5561 5562 5563 5565 5566 5567 5569 5571 5571 5572 5574 5574 5575 5576 5578 5578 5579 5581 5582 5583 5584 5585 5586 5588 5590 5592 5594 5595 5596 5597 5598 5598
5537 5532 5535 5542 5545 5542 5536 5536 5540 5537 5538 5538 5539 5540 5542 5545 5547 5550 5552 5553 5555 5557 5558 5559 5560 5561 5562 5564 5565 5565 5566 5568 5569 5570 5571 5572 5573 5573 5575 5576 5577 5579 5582 5584 5585 5585 5587 5587 5588
5528 5525 5528 5530 5533 5530 5525 5527 5530 5528 5528 5528 5529 5529 5532 5535 5537 5539 5541 5543 5545 5547 5548 5548 5550 5550 5551 5553 5554 5554 5556 5558 5559 5560 5561 5562 5563 5563 5564 5565 5567 5569 5571 5573 5574 5575 5576 5577 5579
5523 5519 5518 5522 5525 5520 5516 5517 5521 5520 5518 5518 5519 5519 5523 5526 5527 5528 5529 5532 5533 5535 5536 5537 5538 5540 5541 5542 5543 5544 5545 5547 5548 5549 5550 5552 5552 5553 5554 5555 5556 5558 5560 5562 5564 5565 5565 5566 5568
5515 5509 5506 5511 5516 5511 5506 5509 5515 5515 5513 5513 5513 5513 5515 5516 5515 5517 5518 5519 5520 5522 5524 5526 5527 5529 5531 5532 5533 5533 5534 5536 5537 5538 5540 5541 5542 5543 5544 5544 5545 5547 5549 5551 5552 5554 5553 5554 5557
5506 5501 5499 5499 5502 5501 5496 5499 5505 5510 5508 5508 5507 5506 5506 5506 5506 5507 5507 5507 5507 5510 5512 5515 5517 5518 5520 5522 5522 5521 5522 5523 5524 5526 5528 5529 5531 5533 5534 5534 5535 5536 5539 5541 5542 5544 5545 5544 5545
5496 5499 5496 5492 5483 5477 5483 5478 5496 5500 5500 5499 5497 5495 5494 5496 5496 5497 5497 5496 5497 5499 5501 5504 5505 5507 5508 5510 5511 5511 5512 5513 5514 5516 5517 5518 5520 5522 5523 5524 5525 5526 5528 5530 5532 5534 5535 5535 5535
5490 5492 5487 5482 5473 5466 5469 5465 5480 5486 5491 5492 5488 5487 5486 5485 5485 5486 5487 5487 5487 5488 5490 5493 5494 5495 5496 5498 5499 5500 5500 5502 5502 5503 5505 5506 5508 5510 5512 5513 5514 5516 5517 5519 5522 5523 5525 5526 5526
5484 5479 5474 5463 5456 5459 5467 5459 5470 5475 5483 5485 5481 5479 5477 5475 5475 5475 5475 5476 5476 5477 5478 5480 5482 5483 5484 5486 5487 5488 5489 5490 5490 5492 5493 5495 5496 5498 5500 5502 5504 5505 5506 5508 5511 5513 5514 5515 5516
5471 5460 5452 5448 5441 5453 5457 5455 5466 5476 5476 5477 5474 5470 5468 5465 5464 5463 5463 5463 5464 5465 5467 5468 5470 5472 5473 5474 5476 5476 5478 5479 5480 5481 5482 5484 5485 5487 5489 5491 5493 5494 5496 5498 5499 5501 5503 5504 5506
5459 5455 5447 5444 5438 5441 5444 5446 5462 5468 5467 5468 5465 5462 5459 5455 5454 5453 5453 5453 5453 5455 5456 5457 5459 5461 5462 5463 5464 5465 5466 5468 5469 5470 5472 5474 5475 5477 5478 5480 5482 5484 5485 5487 5488 5490 5492 5493 5494
5451 5442 5443 5429 5422 5421 5433 5437 5452 5460 5457 5454 5453 5450 5447 5444 5443 5443 5442 5442 5443 5444 5446 5447 5449 5450 5452 5453 5453 5454 5456 5457 5458 5459 5461 5462 5464 5465 5466 5468 5471 5473 5475 5476 5477 5478 5480 5482 5483
5446 5437 5425 5424 5422 5422 5423 5424 5441 5450 5447 5443 5439 5437 5435 5433 5432 5431 5431 5431 5432 5433 5435 5437 5438 5439 5441 5442 5443 5444 5445 5446 5448 5448 5449 5451 5453 5454 5456 5458 5460 5462 5464 5465 5466 5467 5468 5470 5471
5431 5428 5420 5412 5410 5408 5410 5430 5443 5440 5438 5432 5429 5426 5424 5422 5421 5420 5419 5420 5420 5421 5423 5425 5426 5428 5429 5430 5431 5432 5434 5435 5437 5438 5439 5440 5441 5443 5445 5447 5449 5451 5452 5453 5454 5455 5457 5458 5459
5423 5419 5411 5411 5404 5393 5394 5420 5434 5429 5426 5422 5419 5418 5416 5413 5411 5410 5409 5408 5408 5409 5411 5412 5414 5415 5417 5418 5420 5421 5422 5423 5424 5426 5428 5429 5430 5432 5434 5436 5438 5440 5442 5443 5443 5444 5445 5447 5448